Temp
72 78 76 75 62 58 55 61 69 72 74 78 80 77 74 78 75 65 79 84 80 77 78 79 80 80 79 79 79 78 78 78 78 78 78 78 78 78 78 78 78 79 80 80 80 80 80 80 80
74 80 76 67 56 50 57 67 68 70 77 77 77 78 78 74 83 78 78 82 81 77 77 78 79 79 79 79 78 78 78 78 78 78 78 78 78 78 78 78 79 80 80 80 80 80 80 80 80
81 79 66 59 51 51 57 66 68 76 79 79 77 82 79 77 84 83 82 82 79 76 77 78 79 79 79 79 78 78 78 78 78 78 78 78 78 78 78 78 79 80 80 80 80 80 79 79 79
76 73 66 55 52 61 64 69 73 76 79 80 80 76 83 86 84 85 84 83 79 76 77 78 79 79 79 79 78 78 78 78 78 78 78 78 78 77 77 78 78 79 80 80 80 79 78 78 78
72 63 55 50 54 63 72 76 73 75 73 76 80 75 76 86 88 85 83 84 79 77 77 78 78 79 79 79 79 78 78 78 78 78 78 78 78 77 77 78 78 79 79 80 79 78 78 77 77
64 60 49 46 55 65 71 76 75 76 77 75 76 77 76 82 84 83 84 82 82 78 76 77 78 79 79 79 78 78 78 78 78 78 78 77 77 77 77 77 78 78 78 79 78 78 77 76 76
61 53 48 50 55 61 70 75 76 79 79 80 81 73 77 82 81 84 86 83 82 80 76 76 76 78 80 78 78 77 77 77 77 77 77 77 77 77 77 77 77 78 78 78 77 77 76 76 76
64 57 52 55 56 57 72 73 74 75 79 92 88 72 70 77 83 84 82 81 80 78 77 74 75 76 78 79 78 77 77 77 77 77 76 76 76 76 77 76 77 77 77 77 77 77 76 76 76
68 50 46 51 58 62 72 66 74 80 78 81 89 83 84 84 84 83 78 77 76 78 74 73 74 74 75 79 78 77 78 77 77 77 76 75 72 73 74 75 76 77 77 77 77 76 76 76 76
60 49 53 63 64 63 70 71 72 74 74 74 77 84 86 83 80 79 76 75 75 74 74 74 73 73 74 78 77 77 78 77 75 75 74 72 70 69 74 74 77 77 77 77 76 76 76 76 69
58 53 60 65 68 70 70 70 75 73 68 73 75 80 81 79 78 78 79 77 77 78 78 75 74 73 75 76 74 74 75 74 73 73 72 70 70 70 70 68 71 69 75 71 74 72 71 69 68
54 64 65 68 71 70 69 74 72 72 73 79 79 80 79 77 77 79 78 78 77 78 79 78 77 72 74 74 73 73 72 71 71 72 71 69 66 66 67 67 68 68 68 69 69 67 67 68 69
53 61 66 69 69 69 73 71 71 72 76 79 80 80 78 76 76 77 80 78 75 77 77 78 77 77 73 73 73 73 73 73 72 70 71 70 67 66 67 68 68 68 67 69 68 66 67 67 69
60 61 63 65 64 63 65 67 66 73 74 75 76 76 76 76 75 75 75 75 75 74 75 76 78 76 74 75 75 74 75 74 73 73 73 72 71 69 69 68 69 68 69 71 70 67 67 67 69
62 56 59 60 62 61 64 62 64 71 73 72 73 73 75 75 75 75 77 75 74 73 74 73 75 79 75 78 77 76 76 76 75 75 74 73 72 71 69 70 70 73 70 70 69 69 68 68 69
54 50 45 57 63 66 63 55 66 71 69 69 72 71 74 73 75 74 74 72 71 72 71 73 81 79 78 76 77 79 78 76 77 77 75 75 74 74 72 73 71 72 70 70 70 69 67 67 68
46 41 47 54 63 63 61 58 67 70 69 68 68 69 70 70 71 72 74 72 70 70 70 70 72 74 78 76 76 75 72 72 77 78 76 76 76 75 74 74 75 72 71 71 71 68 69 67 68
44 44 50 50 58 59 55 56 62 66 66 67 65 66 67 67 69 71 70 69 67 67 67 68 68 69 70 72 72 73 73 71 70 71 76 77 77 77 76 76 73 72 71 71 69 69 69 68 69
54 51 49 54 62 56 54 55 58 63 62 62 62 63 64 65 68 69 68 67 66 65 64 64 66 65 67 70 69 68 69 73 70 69 72 72 74 76 76 77 71 71 71 70 70 69 69 67 68
55 51 49 55 61 57 55 54 58 61 62 63 63 63 63 63 66 68 64 64 66 65 64 63 64 65 65 66 67 68 68 69 76 74 72 71 72 74 76 76 73 71 71 70 69 68 67 67 67
54 50 49 51 56 55 52 48 53 59 61 64 64 64 65 63 65 65 64 63 62 62 62 63 63 63 63 65 65 64 64 67 68 68 74 73 72 74 73 74 75 73 73 73 69 69 69 67 67
47 58 58 55 48 40 51 38 47 54 56 60 63 62 62 64 65 63 65 62 63 64 62 62 62 63 65 64 63 62 61 61 63 65 73 77 74 73 73 73 74 71 71 73 69 71 72 67 65
54 61 56 54 46 41 44 39 42 51 53 58 62 65 66 65 68 63 65 67 61 62 62 62 62 62 62 62 62 61 60 61 62 63 64 68 72 74 73 71 71 70 69 69 71 69 68 69 67
63 55 51 47 41 35 41 41 45 47 52 54 59 62 65 63 68 64 63 64 62 62 62 60 60 60 62 62 61 60 59 60 60 61 64 65 67 70 75 76 72 71 70 70 69 69 69 71 72
53 43 32 33 31 34 45 40 46 52 57 59 58 60 60 59 58 61 62 63 64 62 59 60 61 61 61 60 60 60 60 60 60 60 61 63 64 64 65 69 70 71 73 72 71 69 70 71 72
49 46 37 28 25 33 43 33 42 55 58 60 60 61 63 61 59 63 65 67 65 62 60 61 60 60 60 61 62 61 61 59 60 61 61 60 62 63 66 67 69 70 71 71 71 69 68 69 70
49 44 53 41 42 31 33 39 50 56 58 58 55 56 56 60 64 63 64 62 62 62 60 62 60 60 60 61 60 60 61 60 60 61 61 62 63 67 68 69 66 69 69 69 69 68 69 69 69
53 52 39 36 27 26 32 34 36 46 49 54 55 52 52 53 55 57 59 61 62 61 61 60 62 64 63 61 60 61 61 62 61 60 61 62 63 65 66 68 67 67 67 69 68 68 69 69 68
45 41 36 34 30 27 23 29 45 47 50 50 53 55 50 53 55 54 59 59 61 60 58 60 62 63 61 61 61 60 60 61 61 60 60 61 62 64 65 66 67 67 67 67 65 66 68 69 69
48 40 37 28 29 31 30 30 52 54 52 52 55 56 54 54 57 57 58 56 57 59 58 59 62 63 64 65 62 60 59 59 58 59 60 60 60 62 63 65 65 66 66 66 66 66 69 69 69
MSLP
1010.39 1009.86 1009.67 1009.88 1011.09 1011.52 1010.34 1009.25 1007.77 1006.90 1005.44 1004.70 1004.06 1003.99 1004.12 1004.25 1004.15 1005.72 1005.19 1005.82 1006.51 1007.40 1008.18 1008.51 1009.14 1009.28 1009.21 1009.48 1010.02 1010.62 1010.89 1011.33 1011.58 1011.89 1012.11 1012.44 1012.78 1013.18 1013.56 1013.98 1014.28 1014.46 1014.55 1014.65 1014.78 1014.85 1014.88 1014.91 1014.82
1010.33 1010.03 1009.80 1010.55 1011.34 1011.68 1009.75 1008.58 1007.74 1006.83 1005.62 1005.09 1004.62 1004.26 1004.38 1004.98 1004.96 1005.39 1005.75 1006.24 1006.60 1007.15 1007.82 1008.47 1009.12 1009.34 1009.42 1009.66 1009.90 1010.48 1010.93 1011.46 1011.74 1012.04 1012.40 1012.74 1012.98 1013.20 1013.56 1014.07 1014.43 1014.51 1014.67 1014.74 1014.92 1015.01 1015.04 1015.00 1015.00
1010.30 1010.46 1011.04 1011.42 1011.58 1011.03 1009.48 1008.17 1007.55 1006.32 1005.40 1005.22 1004.92 1004.30 1004.62 1004.96 1004.81 1005.38 1005.35 1006.12 1007.12 1007.53 1007.66 1008.29 1009.06 1009.70 1009.72 1009.77 1009.93 1010.56 1011.00 1011.32 1011.62 1012.11 1012.60 1012.90 1013.06 1013.23 1013.60 1014.04 1014.38 1014.56 1014.61 1014.70 1014.87 1015.06 1015.16 1015.06 1015.04
1010.76 1010.88 1011.78 1011.76 1011.55 1009.69 1008.78 1008.09 1007.27 1006.53 1005.52 1005.15 1005.27 1005.36 1005.18 1005.00 1004.70 1004.73 1005.54 1006.01 1006.57 1007.45 1007.53 1007.87 1008.79 1009.79 1010.27 1010.32 1010.27 1010.51 1011.22 1011.58 1011.81 1012.14 1012.52 1012.87 1013.19 1013.44 1013.55 1013.94 1014.23 1014.48 1014.53 1014.54 1014.69 1014.93 1015.09 1015.12 1015.08
1011.14 1011.93 1012.56 1012.45 1011.15 1009.58 1008.56 1007.78 1007.25 1006.57 1006.01 1005.70 1005.69 1006.02 1005.94 1005.41 1005.01 1005.22 1005.69 1006.15 1006.57 1007.50 1007.74 1007.48 1008.43 1009.65 1010.22 1010.72 1010.78 1011.02 1011.37 1011.94 1012.19 1012.39 1012.78 1013.06 1013.19 1013.55 1013.85 1014.01 1014.16 1014.40 1014.54 1014.62 1014.67 1014.78 1014.91 1015.14 1015.17
1011.92 1012.58 1013.03 1012.84 1011.47 1009.45 1008.38 1007.42 1007.04 1006.40 1005.39 1005.30 1005.88 1005.64 1005.90 1006.03 1005.60 1005.54 1005.74 1006.10 1006.44 1006.75 1007.78 1007.83 1008.36 1009.55 1010.29 1010.56 1010.90 1011.08 1011.49 1011.90 1012.27 1012.72 1012.91 1013.10 1013.47 1013.50 1013.71 1013.94 1014.24 1014.37 1014.52 1014.69 1014.70 1014.81 1014.96 1014.98 1015.06
1012.18 1012.92 1012.84 1012.56 1011.76 1010.01 1008.12 1007.62 1006.67 1005.87 1005.10 1004.22 1004.83 1005.38 1005.66 1005.30 1005.54 1005.15 1005.94 1006.28 1006.54 1007.28 1007.73 1007.81 1008.14 1009.14 1010.16 1010.84 1011.03 1011.08 1011.33 1011.79 1012.24 1012.63 1012.96 1013.16 1013.37 1013.72 1013.80 1013.82 1013.99 1014.23 1014.40 1014.58 1014.68 1014.83 1014.77 1014.80 1014.92
1011.82 1012.63 1012.80 1012.21 1011.73 1009.97 1007.83 1007.64 1006.78 1005.94 1004.60 1003.00 1004.13 1005.19 1005.54 1005.51 1005.26 1005.15 1005.69 1006.24 1007.03 1007.36 1008.08 1008.19 1008.30 1008.92 1009.73 1010.48 1011.04 1011.30 1011.44 1011.68 1012.12 1012.59 1012.98 1013.25 1013.45 1013.55 1013.73 1013.84 1013.88 1013.92 1014.16 1014.41 1014.49 1014.67 1014.52 1014.56 1014.88
1011.47 1012.46 1012.29 1011.84 1010.96 1009.65 1007.96 1007.90 1006.76 1005.91 1005.27 1004.26 1003.68 1004.44 1004.66 1005.28 1004.92 1005.32 1006.32 1007.31 1007.37 1007.93 1007.99 1008.38 1008.52 1008.85 1009.36 1010.08 1010.69 1011.28 1011.47 1011.63 1012.07 1012.46 1012.79 1013.18 1013.50 1013.71 1013.58 1013.56 1013.70 1013.86 1013.97 1014.14 1014.27 1014.46 1014.46 1014.55 1014.84
1011.53 1011.81 1011.62 1010.93 1010.22 1009.50 1007.92 1007.80 1007.17 1006.76 1005.83 1004.99 1004.47 1004.27 1004.98 1004.93 1005.26 1005.72 1006.62 1007.27 1007.73 1007.87 1008.35 1008.51 1008.75 1008.60 1009.14 1009.62 1010.29 1010.85 1011.38 1011.57 1011.91 1012.38 1012.75 1013.03 1013.36 1013.57 1013.52 1013.57 1013.62 1013.70 1013.75 1013.80 1013.85 1014.12 1014.26 1014.63 1014.92
1010.92 1010.92 1010.63 1010.08 1009.52 1009.02 1008.04 1007.33 1007.15 1006.76 1006.32 1005.52 1005.01 1004.59 1004.66 1005.23 1005.59 1005.77 1006.08 1006.81 1007.04 1007.08 1007.88 1008.41 1008.84 1009.37 1008.67 1009.08 1009.97 1010.65 1011.17 1011.60 1011.74 1011.99 1012.40 1012.86 1013.21 1013.30 1013.34 1013.52 1013.53 1013.67 1013.64 1013.73 1013.61 1013.98 1014.21 1014.54 1014.99
1010.76 1010.32 1010.00 1009.46 1008.89 1008.46 1007.87 1007.00 1006.42 1006.58 1006.18 1005.46 1005.24 1004.98 1005.02 1005.46 1005.42 1005.36 1005.93 1006.54 1006.45 1006.93 1007.14 1008.04 1008.52 1009.11 1009.44 1008.82 1009.02 1009.80 1010.64 1011.42 1011.90 1011.80 1011.88 1012.44 1012.94 1013.22 1013.24 1013.29 1013.31 1013.48 1013.41 1013.41 1013.48 1013.81 1014.02 1014.46 1014.66
1010.32 1009.92 1009.35 1008.79 1008.34 1007.91 1007.43 1007.00 1006.37 1005.20 1005.69 1005.32 1005.21 1005.18 1005.13 1005.45 1005.30 1005.04 1005.42 1005.93 1006.17 1006.53 1006.82 1007.17 1007.91 1008.58 1008.82 1009.56 1009.27 1009.35 1010.03 1010.42 1010.99 1011.47 1011.58 1011.68 1012.33 1012.71 1012.75 1012.86 1013.00 1013.09 1013.18 1013.18 1013.12 1013.31 1013.66 1014.18 1014.24
1010.08 1009.83 1009.26 1008.62 1008.15 1007.77 1007.38 1006.67 1006.06 1004.82 1005.14 1005.47 1005.33 1005.26 1005.19 1005.15 1005.22 1005.08 1005.35 1005.64 1005.87 1006.10 1006.53 1006.94 1007.22 1007.68 1008.52 1008.75 1009.18 1009.01 1009.25 1009.83 1010.48 1010.93 1011.02 1011.16 1011.32 1011.90 1012.38 1012.48 1012.58 1012.55 1012.68 1012.70 1012.79 1012.96 1013.20 1013.82 1013.94
1010.12 1009.99 1009.13 1008.50 1007.92 1007.43 1007.07 1006.40 1005.68 1005.21 1004.87 1004.34 1004.93 1005.14 1004.98 1004.85 1005.09 1005.03 1004.98 1005.31 1005.28 1005.69 1005.90 1006.31 1006.55 1006.94 1007.63 1008.05 1008.70 1008.73 1008.32 1009.02 1009.67 1010.16 1010.92 1010.79 1010.75 1010.95 1011.63 1012.00 1012.00 1011.86 1011.99 1012.30 1012.52 1012.71 1013.01 1013.39 1013.72
1010.66 1010.37 1009.83 1008.63 1007.90 1007.17 1007.37 1005.84 1005.57 1005.08 1005.22 1005.02 1004.30 1004.71 1004.74 1004.63 1004.54 1004.75 1004.77 1005.00 1005.10 1005.26 1005.64 1005.74 1005.78 1006.31 1007.03 1007.55 1007.75 1008.08 1008.24 1007.87 1009.26 1008.98 1009.50 1010.58 1010.23 1010.36 1010.41 1011.22 1011.43 1011.30 1011.67 1011.94 1012.27 1012.56 1013.10 1013.04 1013.30
1011.22 1010.94 1010.04 1008.94 1007.73 1007.37 1007.25 1006.26 1005.54 1005.04 1005.18 1004.94 1004.72 1004.35 1004.66 1004.68 1004.43 1004.10 1004.21 1004.49 1004.89 1005.24 1005.47 1005.82 1005.85 1005.95 1006.50 1007.09 1007.53 1007.57 1007.96 1007.96 1008.37 1008.40 1009.24 1009.74 1009.44 1009.72 1009.95 1010.40 1010.67 1010.76 1011.28 1011.70 1011.88 1012.44 1012.72 1012.89 1012.94
1011.22 1010.84 1009.88 1009.20 1007.90 1007.44 1007.24 1006.60 1006.10 1005.41 1004.76 1004.58 1004.68 1004.60 1004.57 1004.49 1004.50 1003.99 1004.18 1004.60 1004.92 1005.31 1005.53 1005.72 1006.00 1006.19 1006.42 1007.08 1007.74 1007.66 1007.56 1007.77 1008.08 1009.20 1008.84 1008.75 1009.42 1009.12 1009.02 1009.67 1010.28 1010.40 1010.89 1011.16 1011.63 1012.13 1012.34 1012.28 1012.49
1010.42 1010.18 1009.56 1008.58 1007.79 1007.23 1007.25 1006.58 1006.23 1005.62 1005.15 1004.97 1004.77 1004.65 1004.37 1004.18 1004.17 1003.76 1003.78 1004.00 1004.77 1005.60 1005.87 1005.96 1006.16 1006.32 1006.57 1007.00 1007.44 1007.96 1007.77 1007.27 1006.96 1008.74 1008.81 1008.58 1009.69 1009.88 1008.70 1009.03 1009.84 1010.25 1010.57 1010.69 1011.10 1011.70 1012.20 1012.29 1012.25
1009.53 1009.35 1008.86 1008.05 1007.45 1007.20 1007.01 1006.52 1006.05 1005.64 1005.04 1004.61 1004.46 1004.44 1004.31 1004.16 1004.14 1004.64 1004.68 1004.36 1004.60 1004.97 1005.60 1006.14 1006.35 1006.45 1006.74 1007.16 1007.50 1007.62 1007.96 1007.47 1006.88 1006.27 1008.18 1008.02 1009.36 1009.50 1008.14 1009.14 1009.55 1009.84 1010.38 1010.55 1010.82 1011.36 1011.85 1011.99 1012.00
1008.24 1008.25 1008.05 1007.83 1007.37 1007.29 1007.24 1006.66 1006.12 1005.43 1004.98 1004.60 1004.34 1004.09 1004.00 1003.98 1003.93 1004.12 1004.83 1004.82 1004.76 1005.11 1005.33 1005.60 1006.04 1006.33 1006.48 1006.60 1007.16 1007.65 1007.82 1007.47 1007.30 1007.02 1006.10 1007.03 1008.88 1007.75 1008.19 1009.14 1009.45 1009.79 1009.79 1009.87 1010.65 1010.74 1011.43 1011.48 1011.77
1007.74 1007.38 1007.33 1007.47 1007.92 1008.13 1007.53 1006.48 1006.40 1005.70 1004.92 1004.56 1004.11 1003.91 1003.60 1003.42 1003.16 1003.46 1003.86 1004.51 1004.54 1004.58 1005.00 1005.53 1006.07 1006.14 1006.18 1006.34 1006.98 1007.56 1008.00 1008.17 1007.67 1007.60 1006.65 1006.11 1005.78 1007.39 1007.86 1008.84 1009.32 1009.57 1009.54 1009.38 1010.12 1010.03 1010.56 1010.97 1011.33
1006.93 1006.69 1007.07 1007.44 1007.96 1008.29 1008.18 1007.78 1006.16 1005.85 1005.34 1004.57 1003.85 1003.50 1003.02 1002.63 1002.22 1002.47 1002.84 1002.86 1003.78 1004.07 1004.76 1005.33 1005.46 1005.84 1006.18 1006.46 1006.83 1007.45 1007.88 1008.04 1007.90 1007.68 1007.63 1007.24 1006.92 1006.38 1007.46 1008.75 1008.74 1008.41 1009.28 1009.39 1009.54 1009.91 1010.08 1010.18 1010.49
1006.35 1006.82 1007.22 1007.76 1008.47 1008.49 1008.58 1007.85 1005.31 1005.94 1005.08 1004.41 1003.76 1003.34 1002.64 1002.11 1001.12 1001.33 1002.03 1002.54 1003.26 1003.84 1004.54 1005.14 1005.53 1005.86 1006.07 1006.45 1006.96 1007.43 1007.89 1008.02 1008.22 1008.36 1008.28 1007.85 1007.79 1007.53 1007.42 1006.53 1007.44 1008.45 1008.96 1009.05 1009.32 1009.47 1009.26 1009.60 1009.75
1006.56 1007.43 1008.38 1008.64 1009.54 1008.85 1008.61 1007.71 1005.42 1005.11 1004.74 1004.45 1003.70 1002.98 1002.39 1001.56 1001.20 1001.10 1001.64 1002.41 1003.10 1003.72 1004.47 1004.98 1005.32 1005.68 1005.86 1006.37 1006.68 1006.91 1007.33 1007.74 1007.93 1008.13 1008.12 1008.15 1008.22 1008.03 1008.04 1007.52 1007.10 1007.26 1007.90 1007.96 1008.66 1008.77 1008.40 1009.21 1008.95
1006.91 1008.05 1009.42 1009.68 1010.23 1010.07 1009.64 1007.88 1005.73 1004.71 1004.39 1003.88 1003.34 1002.62 1002.28 1001.88 1002.10 1002.65 1002.35 1002.31 1002.79 1003.50 1004.33 1004.57 1005.11 1005.62 1005.91 1006.15 1006.35 1006.54 1006.90 1007.44 1007.70 1007.56 1007.76 1007.94 1007.98 1007.80 1007.59 1007.18 1007.16 1006.97 1006.58 1007.04 1007.93 1007.80 1008.31 1008.37 1008.66
1007.11 1007.80 1008.38 1009.65 1010.35 1011.15 1009.96 1008.34 1006.43 1005.22 1004.37 1004.35 1003.83 1003.37 1002.76 1002.44 1001.41 1001.83 1003.16 1003.58 1003.67 1003.64 1003.94 1004.00 1004.39 1004.80 1005.30 1005.54 1005.77 1006.10 1006.28 1006.64 1006.94 1007.00 1007.27 1007.51 1007.62 1007.41 1007.15 1006.88 1007.17 1007.49 1006.74 1006.76 1007.33 1007.63 1007.50 1007.08 1007.56
1007.35 1008.44 1009.55 1011.06 1012.22 1011.72 1010.48 1009.09 1007.43 1006.02 1005.32 1005.10 1004.75 1004.44 1003.90 1003.68 1002.92 1003.00 1003.51 1003.71 1003.56 1003.65 1003.24 1003.34 1003.56 1004.02 1004.40 1004.79 1005.30 1005.58 1005.84 1005.97 1006.20 1006.60 1006.95 1006.95 1007.01 1007.06 1007.08 1006.89 1006.88 1007.72 1006.90 1007.12 1006.21 1006.80 1006.70 1006.63 1006.60
1008.26 1009.51 1011.10 1012.09 1012.82 1012.39 1011.29 1009.18 1007.23 1006.51 1005.82 1005.34 1005.14 1004.18 1004.10 1003.78 1003.70 1003.28 1003.02 1003.46 1003.66 1003.58 1003.72 1002.77 1003.08 1003.56 1003.96 1004.37 1004.65 1004.91 1005.17 1005.56 1005.78 1006.03 1006.33 1006.75 1006.86 1007.02 1006.73 1006.65 1006.63 1006.47 1006.39 1006.30 1006.26 1006.02 1006.12 1006.16 1006.02
1008.56 1009.96 1011.20 1012.28 1012.88 1012.67 1011.92 1009.83 1007.70 1006.12 1005.88 1005.27 1005.07 1004.44 1004.28 1003.59 1003.07 1003.11 1003.14 1003.47 1003.82 1003.23 1002.89 1003.02 1002.68 1002.97 1003.08 1003.49 1003.86 1004.24 1004.58 1004.98 1005.63 1005.82 1005.83 1006.05 1006.36 1006.41 1006.51 1006.63 1006.36 1006.48 1006.14 1005.85 1006.11 1005.61 1005.81 1005.88 1005.72
Wind_Speed
8 10 1 4 4 5 6 2 3 9 11 5 5 9 4 6 5 6 5 14 17 16 14 15 16 17 19 20 19 15 16 15 16 15 16 16 16 16 15 14 13 13 12 11 9 8 8 7 7
6 6 4 2 5 2 6 5 7 5 6 4 2 4 13 4 6 6 4 10 19 18 15 14 16 17 19 20 20 18 17 16 16 15 15 15 15 16 16 14 12 13 12 11 9 8 7 7 5
6 0 3 4 3 6 4 3 5 11 7 8 6 4 3 2 4 6 8 16 14 14 14 14 17 15 18 20 21 18 17 17 17 16 15 15 14 15 15 13 12 12 12 11 9 7 5 5 3
4 5 4 3 7 10 2 9 6 9 8 9 7 7 5 4 1 9 15 17 18 15 15 20 19 14 15 17 19 19 17 16 17 17 16 15 14 13 14 13 12 10 11 11 10 8 6 4 3
3 3 1 2 7 8 8 6 5 9 4 4 8 5 3 8 6 11 15 16 17 13 11 17 21 16 15 15 16 17 17 14 14 15 14 13 13 12 12 12 11 10 9 10 10 9 7 5 3
3 3 2 4 7 9 7 9 5 6 5 3 3 6 1 2 6 2 12 14 15 17 13 14 20 20 14 16 16 18 17 16 15 13 13 12 11 12 12 11 10 9 8 8 8 8 6 6 6
5 3 5 4 6 10 15 6 10 14 12 11 9 4 4 3 4 9 9 11 14 12 13 12 15 17 18 13 14 17 18 17 15 14 13 13 12 11 11 11 10 9 8 8 7 7 8 7 7
4 5 4 5 6 10 16 7 9 12 8 9 8 6 4 1 6 12 8 11 10 12 11 11 13 14 14 13 14 16 18 18 17 15 13 13 12 12 11 10 10 10 9 9 9 9 10 9 7
3 2 5 6 7 8 18 5 5 7 8 3 12 5 8 8 9 14 9 9 8 7 10 10 12 13 14 14 12 12 17 18 17 15 15 11 5 6 9 10 11 11 11 10 10 11 10 8 8
5 4 8 7 6 9 17 8 8 6 8 5 5 1 5 7 9 10 11 5 5 6 6 7 8 14 14 11 12 10 11 9 9 8 9 6 6 5 7 9 12 13 12 13 13 13 11 8 2
5 6 4 8 10 12 17 15 6 8 7 7 8 8 4 6 8 8 8 7 8 11 8 9 9 7 14 13 9 6 5 5 6 9 7 5 5 5 4 3 4 4 10 4 8 5 4 4 3
4 7 11 13 13 12 14 15 15 10 9 8 10 8 3 6 8 8 6 9 6 8 12 11 11 9 7 7 11 10 8 5 4 7 9 7 4 5 4 4 5 5 4 6 5 3 4 5 6
4 6 9 14 15 14 16 18 19 17 9 7 7 8 12 7 9 6 8 9 8 8 8 13 12 11 9 7 6 10 10 9 9 8 8 8 6 6 5 5 4 5 4 5 6 5 4 5 6
4 5 9 8 9 6 7 10 4 11 5 9 8 8 9 10 10 6 6 7 8 9 9 9 13 11 8 9 9 9 9 9 7 7 10 11 8 7 6 5 6 5 5 5 6 5 4 4 4
6 7 9 4 4 5 3 10 12 7 7 12 7 9 9 12 10 11 11 10 9 8 10 11 11 13 10 12 10 9 10 10 10 9 9 12 11 10 8 7 6 7 5 6 5 3 2 2 3
4 3 4 7 5 8 6 18 14 12 6 13 14 7 9 11 11 11 10 8 8 7 10 8 11 15 11 8 9 8 9 9 9 10 11 14 12 11 10 8 6 6 4 4 4 3 2 3 4
3 4 7 9 6 7 6 16 13 11 11 14 11 10 7 9 10 10 9 11 9 9 10 7 5 9 11 8 7 5 6 6 7 8 8 13 14 12 8 7 7 7 5 5 4 2 3 3 3
6 4 5 5 6 4 5 10 9 12 10 16 9 8 8 7 13 11 9 7 6 7 7 7 6 5 5 4 2 3 5 4 5 3 7 12 9 15 12 8 7 5 4 4 2 2 2 3 3
10 10 12 5 8 4 6 10 10 9 5 8 8 8 7 6 6 8 9 9 9 7 7 7 8 4 3 2 3 1 3 4 6 5 8 2 7 12 10 8 5 5 6 5 5 4 4 3 3
13 14 8 7 5 5 10 13 11 6 7 7 8 7 8 5 6 6 4 7 12 11 9 8 7 7 5 3 2 1 1 3 4 13 5 7 8 10 6 8 6 6 4 5 6 5 3 2 4
11 7 5 7 6 4 4 6 6 7 5 6 8 7 8 10 10 9 8 10 8 9 9 9 8 7 4 5 3 1 1 2 3 3 7 9 12 8 5 7 7 8 7 6 5 6 7 5 4
5 8 10 6 2 7 3 12 5 7 10 6 9 9 10 10 10 9 15 12 14 11 7 8 7 8 5 5 3 3 2 2 2 4 6 6 9 6 5 7 8 6 5 7 6 5 7 4 5
12 12 12 10 6 5 4 7 3 3 14 17 15 16 14 12 14 14 19 21 9 10 10 8 8 8 6 6 4 3 2 3 2 4 7 8 6 10 9 9 8 5 4 5 4 5 8 6 5
15 8 5 4 2 9 7 7 10 5 10 7 7 10 12 11 13 11 11 15 12 9 8 8 8 6 7 7 7 7 6 5 3 3 4 4 4 5 11 13 11 8 8 8 7 9 8 10 9
4 5 5 8 5 12 6 8 13 6 6 8 11 11 8 9 4 16 18 15 14 12 9 8 9 8 8 7 6 7 7 7 7 6 4 4 4 3 7 5 7 9 12 10 10 9 10 10 11
2 4 3 6 4 10 5 7 7 4 6 5 10 10 6 10 7 5 9 13 14 11 10 10 9 7 8 7 9 8 8 5 5 5 4 4 4 4 6 6 5 6 6 6 10 9 9 10 11
4 4 11 8 7 5 5 7 7 11 11 7 11 9 7 6 15 16 8 7 6 8 11 13 11 9 9 10 7 7 6 7 6 7 6 4 5 4 5 5 4 8 5 6 7 8 10 8 10
2 1 3 3 3 5 4 5 7 7 6 9 10 8 8 6 8 9 8 3 6 11 9 9 11 13 13 11 8 7 7 7 6 5 6 6 5 4 5 4 3 6 4 6 5 7 9 8 9
3 3 5 4 4 3 3 6 7 5 5 8 10 7 4 1 4 2 5 5 7 5 8 10 11 12 8 9 9 8 8 7 6 6 5 4 3 4 4 5 6 4 4 4 5 6 7 10 11
3 5 5 5 4 3 3 9 18 18 10 6 13 6 8 8 8 7 5 5 5 5 7 9 11 12 13 13 9 7 7 7 7 6 6 5 1 1 2 4 4 5 5 4 6 5 8 10 12
Wind_Direction
332 316 284 34 61 65 262 274 198 324 352 17 346 84 121 0 147 186 354 153 131 141 155 152 162 156 146 139 136 135 130 128 126 120 116 117 118 118 117 119 122 124 124 121 119 114 113 113 110
324 322 34 59 100 109 266 205 2 300 283 357 146 104 69 65 30 100 77 140 147 147 152 156 162 161 151 146 141 142 139 137 130 124 125 129 129 127 126 127 131 131 130 126 125 124 122 115 114
306 153 74 102 154 189 221 88 328 320 325 27 11 28 52 117 36 141 149 145 147 151 150 154 156 167 157 151 145 145 145 144 137 136 138 140 137 135 133 134 137 139 137 135 133 131 133 129 130
343 8 10 110 238 264 281 307 302 321 335 23 3 51 4 312 142 162 154 150 151 158 157 152 152 167 164 156 149 145 147 146 142 143 146 146 145 141 137 140 145 148 146 143 142 146 151 158 165
24 61 336 273 259 266 296 280 284 297 264 12 66 63 20 351 8 129 152 156 153 157 165 149 148 160 164 159 150 145 143 144 144 144 147 149 145 142 142 145 149 151 152 155 155 160 167 179 198
2 100 112 234 269 288 302 313 303 291 272 282 52 115 60 159 28 292 166 164 163 154 160 149 146 160 163 159 156 148 145 146 145 147 149 149 152 151 150 150 152 153 161 169 171 170 175 198 219
150 96 211 227 274 298 280 349 293 291 260 257 159 127 204 67 355 28 128 173 160 149 151 151 148 155 168 163 160 154 151 149 149 151 154 155 156 159 159 156 158 166 174 185 189 190 198 215 228
138 119 233 213 243 271 278 326 315 310 255 314 134 173 196 98 85 68 31 130 145 148 151 154 148 149 159 168 164 164 158 153 154 156 160 161 163 165 165 168 172 176 186 201 201 210 213 218 234
115 142 232 230 235 263 284 285 301 289 303 322 242 134 163 180 82 68 57 81 121 147 155 158 155 153 151 162 167 170 165 158 158 162 165 163 163 175 176 181 186 190 195 209 213 219 225 221 241
155 184 228 220 230 253 276 270 291 293 283 298 335 61 140 102 86 90 96 107 156 145 165 164 167 160 152 156 166 162 174 165 160 164 170 167 169 181 188 195 196 200 203 211 221 222 225 229 233
215 221 230 258 248 253 268 281 265 236 275 255 235 250 166 140 128 116 118 133 176 170 173 177 170 190 164 155 154 164 164 170 166 165 167 170 178 193 196 200 205 201 217 223 230 225 208 201 182
236 263 236 255 253 260 263 273 276 198 215 229 259 254 179 162 164 155 148 120 122 146 176 176 175 179 218 166 160 162 163 167 188 185 173 171 181 200 208 198 207 202 208 216 230 213 207 204 201
189 254 249 240 253 256 258 261 263 263 202 211 221 262 268 198 184 186 177 140 138 118 171 173 164 180 188 186 172 164 174 177 184 189 191 179 182 195 190 209 203 210 203 222 231 212 211 205 217
303 284 269 283 255 234 242 269 236 279 160 194 209 220 248 250 197 195 198 181 152 146 143 167 170 175 181 179 188 180 172 181 180 193 196 193 188 192 198 205 210 214 204 220 234 207 201 205 193
295 326 320 281 266 272 268 286 255 278 315 302 212 213 228 239 183 193 198 187 179 168 155 165 176 176 175 187 190 186 182 173 181 186 205 203 194 191 189 206 205 218 203 215 228 231 176 196 205
329 7 324 277 306 271 122 266 273 262 231 271 285 211 215 227 226 202 210 206 193 160 173 180 172 173 178 178 186 190 188 174 197 191 182 208 202 203 191 198 211 207 201 206 214 215 203 216 191
335 242 270 301 199 256 163 275 288 291 249 245 248 271 226 232 246 244 227 197 185 183 162 166 154 155 179 181 191 181 192 165 198 184 192 207 201 199 196 206 214 192 188 205 201 162 175 207 219
238 227 263 249 298 185 266 262 277 289 243 240 234 245 262 267 223 219 196 176 162 161 144 136 135 126 95 133 189 200 163 154 131 263 213 194 226 208 194 197 214 184 192 222 209 150 196 186 210
247 260 262 247 246 307 271 275 282 286 290 273 241 236 249 263 276 203 179 148 128 141 140 146 139 130 108 86 128 282 244 190 145 180 267 146 231 230 197 205 180 182 201 192 194 166 199 243 198
240 242 254 257 251 283 281 283 272 274 276 256 251 256 248 226 188 248 274 166 170 167 156 138 138 135 122 123 124 72 316 302 248 154 201 166 222 233 198 211 203 186 195 203 186 167 174 228 194
247 216 235 246 282 306 310 288 308 302 269 278 290 279 288 240 235 197 200 195 171 163 167 155 148 135 121 121 112 68 354 305 325 271 172 157 219 209 199 224 215 214 205 210 198 172 190 207 232
271 258 249 255 250 261 142 283 260 282 294 287 285 271 259 259 248 193 194 189 183 175 142 139 143 141 138 120 110 121 161 284 299 324 326 252 144 167 192 226 226 203 230 212 204 178 212 161 213
271 269 246 245 225 167 212 280 163 356 291 283 283 281 275 261 257 204 190 184 168 138 150 164 154 148 146 140 136 147 190 214 277 318 327 316 308 179 173 202 230 217 217 230 222 192 210 207 213
274 300 298 332 141 250 207 211 264 252 256 269 283 271 271 280 267 203 176 155 150 148 148 153 153 160 153 157 170 175 209 245 257 241 263 294 283 278 247 196 184 207 218 219 225 218 201 219 226
33 355 319 281 294 268 207 257 271 241 267 249 278 289 290 12 251 155 148 149 153 161 158 159 161 177 177 171 176 187 200 215 218 229 233 242 257 261 267 253 200 191 197 206 215 225 212 220 219
163 169 191 285 258 303 355 260 266 255 238 266 284 278 234 115 87 106 145 157 165 165 166 166 172 176 194 199 205 198 200 197 221 229 220 237 246 248 266 276 268 229 208 218 217 213 222 216 231
292 211 235 261 250 245 223 285 303 282 291 330 352 9 337 267 159 161 186 206 197 179 186 184 179 188 190 203 203 209 205 190 197 216 221 237 251 246 243 237 265 277 222 189 214 224 231 209 226
204 291 322 16 257 249 259 275 249 326 335 337 336 342 355 17 49 53 33 312 206 207 203 191 186 191 201 197 189 196 203 209 215 209 228 223 243 263 276 275 228 256 257 251 193 230 249 233 233
313 103 59 117 146 257 289 261 223 231 270 285 260 271 208 345 55 58 72 37 10 332 274 197 188 196 198 197 200 190 190 202 206 200 211 215 227 261 280 287 281 280 266 274 255 248 251 244 245
129 153 127 123 231 227 265 261 262 274 259 273 284 261 256 222 188 189 177 201 229 344 260 219 196 194 205 206 207 197 191 188 192 185 178 164 176 296 297 290 293 274 285 281 260 267 271 256 239